Terminal Aerodrome Forecast
Issued by NWS Greer, SC

Home | Current Version | Previous Version | Text Only | Print | Product List | Glossary On
Versions: 1 2 3 4 5 6 7 8 9 10 11 12 13 14 15 16 17 18 19 20 21 22 23 24 25 26 27 28 29 30 31 32 33 34 35 36 37 38 39 40 41 42 43
000
FTUS42 KGSP 252335
TAFCLT
TAF
KCLT 252335Z 2600/2624 18006KT P6SM BKN060
     FM260800 18007KT P6SM SCT017 OVC030
     FM261000 18005KT P6SM SCT007 OVC010
     FM261500 19006KT P6SM SCT013 OVC025
     FM261700 19006KT P6SM BKN045 PROB30 2621/2624 3SM TSRA
      BKN035CB=

USA.gov is the U.S. government's official web portal to all federal, state and local government web resources and services.